Terminal Aerodrome Forecast
Issued by NWS

Home | Current Version | Previous Version | Text Only | Print | Product List | Glossary On
Versions: 1 2 3 4 5 6 7 8 9 10 11 12 13 14 15 16 17 18 19 20 21 22 23 24 25 26 27 28 29 30 31 32
000
FTUS44 KHGX 290553
TAFCXO
TAF
KCXO 290553Z 2906/3006 10007KT P6SM SCT017 SCT022 OVC030
     FM291000 15010KT 5SM BR FEW010 BKN025
     FM291500 15012KT 6SM BR SCT015 BKN025
     FM291700 15014G22KT P6SM BKN035
     FM291900 16015G25KT P6SM VCSH SCT040 BKN100
     FM300000 15012KT 6SM BR VCTS SCT010 BKN025CB=

USA.gov is the U.S. government's official web portal to all federal, state and local government web resources and services.